Location: Laguna de la Cañada del Gallo
(40.3974°N, 5.2096°W)
Time: 12:06:44
(UTC+00:00)

USA 234 - Pass Details

Date: 18 April 2024
Orbit: 1099 x 1109 km, 123.0° (Epoch: 26 May)

Event Time Altitude Azimuth Distance (km) Brightness Sun altitude
Exits shadow 21:46:03 35° 202° (SSW) 1,701 4.0 -27.3°
Maximum altitude 21:47:35 40° 232° (SW) 1,577 4.0 -27.5°
Drops below altitude 10° 21:53:39 10° 300° (WNW) 2,961 6.4 -28.3°
Sets 21:56:20 0° 308° (NW) 3,921 7.3 -28.6°
